Regional Weather Roundup
Issued by NWS Mobile, AL

Home | Current Version | Previous Version | Text Only | Print | Product List | Glossary On
Versions: 1 2 3 4 5 6 7 8 9 10 11 12 13 14 15 16 17 18 19 20 21 22 23 24 25 26 27 28 29 30 31 32 33 34 35 36 37 38 39 40 41 42 43 44 45 46 47 48 49 50
000
ASUS44 KMOB 271610
RWRMOB
REGIONAL WEATHER ROUNDUP
NATIONAL WEATHER SERVICE MOBILE AL
1000 AM CST FRI FEB 27 2015

NOTE: "FAIR" INDICATES FEW OR NO CLOUDS BELOW 12,000 FEET WITH NO
      SIGNIFICANT WEATHER AND/OR OBSTRUCTIONS TO VISIBILITY.

  * THESE STATIONS ARE PART OF THE UNIVERSITY OF SOUTH ALABAMA
    MESONET AND ARE NOT UNDER NWS OR FAA QUALITY CONTROL.

ALZ061>064-271700-
COASTAL ALABAMA

CITY           SKY/WX    TMP DP  RH WIND       PRES   REMARKS
MOBILE REG APT PTSUNNY   43  30  60 NE13      30.39F
BROOKLEY FIELD SUNNY     43  31  62 N16       30.41R
USA CAMPUS*      N/A     43  30  61 NW2       30.39F
DOG RIVER*     NOT AVBL


CITY           SKY/WX    TMP DP  RH WIND       PRES   REMARKS
MOUNT VERNON*    N/A     41  28  60 E7        30.43S
SARALAND*      NOT AVBL
BAY MINETTE*   NOT AVBL
LOXLEY*          N/A     43  32  65 NE13      30.39S
ROBERTSDALE*     N/A     43  32  65 NE7       30.38S
FAIRHOPE*        N/A     43  32  65 N7        30.38S
ELBERTA*         N/A     43  32  65 N15       30.37S
FOLEY*         NOT AVBL
GRAND BAY*       N/A     43  30  61 N13       30.37S
DAUPHIN ISLND* NOT AVBL
BON SCOUR NWR* NOT AVBL
GULF SHORES    SUNNY     45  32  60 NE10      30.38S

$$

ALZ051>060-271700-
INTERIOR SOUTHWEST AND SOUTH CENTRAL ALABAMA

CITY           SKY/WX    TMP DP  RH WIND       PRES   REMARKS
GREENVILLE     SUNNY     41  27  57 N13       30.40S
EVERGREEN      SUNNY     41  29  62 NE13      30.42R
CASTLEBERRY*   NOT AVBL
ATMORE*          N/A     41  30  65 N12       30.41S
DIXIE*           N/A     43  28  56 N8        30.37R
ANDALUSIA/OPP  SUNNY     49  29  46 NE10      30.40R
ANDALUSIA*       N/A     43  30  61 VRB8      30.38R
FLORALA APT    SUNNY     48  30  49 N13G18    30.39S
FLORALA*         N/A     45  32  61 VRB3      30.35R

$$

FLZ001>006-271700-
WESTERN FLORIDA PANHANDLE

CITY           SKY/WX    TMP DP  RH WIND       PRES   REMARKS
PENSACOLA      SUNNY     45  32  60 N9        30.38S
NAS PENSACOLA  PTSUNNY   47  32  56 N13       30.37S
MILTON         MOSUNNY   47  31  53 VRB6      30.39S
WHTNG S FIELD  MOSUNNY   49  31  49 N14       30.39S


CITY           SKY/WX    TMP DP  RH WIND       PRES   REMARKS
WALNUT HILL*   NOT AVBL
JAY*             N/A     41  30  65 N8        30.40R
DUKE FIELD     PTSUNNY   46  30  52 N12       30.36R
CRESTVIEW      SUNNY     47  31  53 N9        30.39S
VALPARAISO     PTSUNNY   46  30  55 NE13      30.35S
DESTIN         MOSUNNY   46  32  58 NE9       30.36F

$$

MSZ076-079-271700-
INTERIOR SOUTHEAST MISSISSIPPI

CITY           SKY/WX    TMP DP  RH WIND       PRES   REMARKS
LEAKESVILLE*     N/A     37  28  70 NE10      30.44R
AGRICOLA*      NOT AVBL

$$

MARINE OBSERVATIONS

STATION/POSITION TIME  TEMP    WIND        PRES    WAVE
                       AIR SEA DIR/SP/G            HT/PER
                 (UTC) (F)     (DEG/KT/KT) (MB)    (FT/S)
PASCAGOULA       1600   42      20/ 10/ 16 1028.3F
PETIT BOIS ISLND 1600   41      30/ 19/ 23 1028.6F
GRAND BAY        1500   38      20/ 14     1029.0S
KATRINA CUT      1500   41      50/ 22     1029.1R
CEDAR POINT      1500   38      30/ 20     1028.4R
E DAUPHIN ISLAND 1559   40      30/ 14/ 16 1028.4F
MIDDLE BAY LIGHT 1500   40      10/ 18     1028.8R
USCG MOBILE BAY  1600   40 51   30/ 12/ 17 1028.4R
STATE DOCKS      1600   43 47              1029.2R
MEAHER PARK      1500   41      10/  8     1029.8S
WEEKS BAY        1500   40                   N/A
FORT MORGAN      1600   41      50/ 17/ 19 1028.2R
12 S ORANGE BCH  1600   44 61   40/ 17/ 21 1027.4F   3/ 4
PENSACOLA BAY    1600   46 54   20/  8/ 13 1029.0S
64 S DAUPHIN ISL 1525   48 65   60/ 23/ 29 1027.3F   7/ 6
67 S FORT MORGAN 1500   50      40/ 23     1026.8S

$$

SELECTED LOCATIONS ACROSS THE REGION

CITY           SKY/WX    TMP DP  RH WIND       PRES   REMARKS
NEW ORLEANS    PTSUNNY   43  32  65 NE18      30.41R
GULFPORT       SUNNY     43  30  60 NE15G24   30.40R
PASCAGOULA AP  SUNNY     44  30  57 NE12      30.39S
PASCAGOULA*    NOT AVBL
HATTIESBURG    CLOUDY    35  29  78 N10       30.46R WCI  27
LAUREL         CLOUDY    34  25  69 NE12      30.46R WCI  25
MERIDIAN       PTSUNNY   35  24  64 NE13      30.47S WCI  26
JACKSON        CLOUDY    33  24  69 N9        30.48R WCI  25
MONTGOMERY     SUNNY     41  28  60 N9        30.45S
TROY           SUNNY     44  29  55 N15       30.41R
KINSTON*       NOT AVBL
GENEVA*          N/A     46  32  57 NE10      30.40R
ASHFORD*         N/A     43  30  61 VRB8      30.38R
DOTHAN         SUNNY     46  31  55 NE8       30.41R
PANAMA CITY    PTSUNNY   47  32  56 N14       30.35S

$$




USA.gov is the U.S. government's official web portal to all federal, state and local government web resources and services.